This demonstration page uses our WeatherBlox Daily Observations layout. Learn more.

Left ArrowRight Arrow

31.84235, -102.49876

Hourly Observations for August 14, 2022

Temp ( °F °C ) Dew Point ( °F °C ) Humidity (%) Winds ( mph kmh ) Pressure ( in mb ) Visibility ( mi km ) Precip ( " mm )
12:53 am 00:53 Partly Cloudy 86 30 56 13.3 36 36 SE 9 15 29.90 1013 10 16 0.00 0.00
1:53 am 01:53 Clear 83 28.3 56 13.3 40 40 SE 7 11 29.90 1012 10 16 0.00 0.00
2:53 am 02:53 Clear 81 27.2 56 13.3 42 42 ESE 7 11 29.90 1012 10 16 0.00 0.00
3:53 am 03:53 Clear 79 26.1 56 13.3 45 45 SE 6 9 29.90 1012 10 16 0.00 0.00
4:53 am 04:53 Clear 78 25.6 57 13.9 48 48 S 5 7 29.89 1012 10 16 0.00 0.00
5:53 am 05:53 Clear 75 23.9 56 13.3 51 51 E 3 6 29.90 1012 10 16 0.00 0.00
6:53 am 06:53 Clear 76 24.4 57 13.9 52 52 ESE 5 7 29.90 1013 10 16 0.00 0.00
7:53 am 07:53 Sunny 77 25 58 14.4 52 52 Calm 29.91 1013 10 16 0.00 0.00
8:53 am 08:53 Sunny 82 27.8 60 15.6 47 47 SE 6 9 29.93 1013 10 16 0.00 0.00
9:53 am 09:53 Sunny 84 28.9 61 16.1 46 46 S 7 11 29.93 1014 10 16 0.00 0.00
10:53 am 10:53 Sunny 88 31.1 62 16.7 42 42 SW 8 13 29.93 1014 10 16 0.00 0.00
11:53 am 11:53 Sunny 91 32.8 62 16.7 38 38 E 3 6 29.92 1013 10 16 0.00 0.00
12:53 pm 12:53 Mostly Sunny 91 32.8 61 16.1 37 37 Calm 29.91 1013 10 16 0.00 0.00
1:53 pm 13:53 Mostly Sunny 95 35 58 14.4 29 29 ENE 10 17 29.90 1012 10 16 0.00 0.00
2:53 pm 14:53 Mostly Sunny 96 35.6 58 14.4 28 28 SE 10 17 29.87 1012 10 16 0.00 0.00
3:53 pm 15:53 Mostly Sunny 95 35 57 13.9 28 28 E 10 17 29.85 1011 10 16 0.00 0.00
4:53 pm 16:53 Mostly Sunny 98 36.7 57 13.9 26 26 ENE 8 13 29.82 1010 10 16 0.00 0.00
5:53 pm 17:53 Mostly Sunny 98 36.7 57 13.9 26 26 E 15 24 29.81 1009 10 16 0.00 0.00
6:53 pm 18:53 Sunny 97 36.1 56 13.3 26 26 E 12 19 29.79 1009 10 16 0.00 0.00
7:53 pm 19:53 Sunny 95 35 56 13.3 27 27 ESE 10 17 29.78 1009 10 16 0.00 0.00
8:53 pm 20:53 Clear 93 33.9 55 12.8 28 28 ESE 12 19 29.79 1009 10 16 0.00 0.00
9:53 pm 21:53 Clear 91 32.8 54 12.2 29 29 SE 12 19 29.81 1009 10 16 0.00 0.00
10:53 pm 22:53 Clear 88 31.1 53 11.7 30 30 SE 13 20 29.83 1010 10 16 0.00 0.00
11:53 pm 23:53 Clear 86 30 55 12.8 35 35 SE 16 26 29.83 1010 10 16 0.00 0.00

Powered by AerisWeather